User: anonymous   Login
Location: Plymouth
(43.7570°N, 71.6890°W)
Time: 16:32:53
(UTC-05:00)
Language:

Meteor 1-28 Rocket - Orbit

View from above orbital plane
View from above orbital plane
View from above satellite
View from above satellite

Ground track
Ground track

The orbit data is extracted from the following two-line orbital elements,

1 10114U 77057B   17351.21449340  .00000291  00000-0  17914-4 0  9995
2 10114  97.2056 164.4280 0015146  44.6643 315.5808 15.16919812211295
Epoch (UTC): 17 December 2017 05:08:52
Eccentricity: 0.0015146
inclination: 97.2056°
perigee height: 505 km
apogee height: 525 km
right ascension of ascending node: 164.4280°
argument of perigee: 44.6643°
revolutions per day: 15.16919812
mean anomaly at epoch: 315.5808°
orbit number at epoch: 21129

The dashed part of the orbit path shows where the satellite is in the earth's shadow,  

DLR